IU2GED-13 Weather Reports


time (UTC)temp
F
wind
direction
speed
knots
gust
knots
rain 1hr
in
rain 24hr
in
rain mn
in
humidity
%
barometer
mb
20260507192730 53 67 0.0 3.5 0.00 0.63 0.08 87 1011.4
20260507192235 53 67 0.0 4.3 0.00 0.63 0.08 87 1011.4
20260507191740 53 71 1.7 4.3 0.00 0.63 0.08 87 1011.4
20260507191223 54 360 2.6 3.5 0.00 0.63 0.08 87 1011.2
20260507190749 54 16 1.7 3.5 0.00 0.63 0.08 86 1011.2
20260507190252 54 38 0.9 2.6 0.00 0.63 0.08 87 1011.1
20260507185756 54 355 1.7 2.6 0.00 2.01 0.08 86 1011.2
20260507185240 54 78 0.0 1.7 0.00 2.01 0.08 86 1011.1
20260507184728 54 122 0.0 0.9 0.00 2.01 0.08 86 1011.0
20260507184233 54 146 0.0 2.6 0.00 2.01 0.08 86 1011.0
20260507183737 54 152 0.9 5.2 0.00 2.01 0.08 86 1010.9
20260507183243 55 184 1.7 6.1 0.00 2.01 0.08 85 1010.7
20260507182727 55 193 4.3 6.1 0.00 2.01 0.08 84 1010.7
20260507182250 55 203 2.6 5.2 0.00 2.01 0.08 85 1010.6
20260507181733 55 200 0.0 2.6 0.00 2.01 0.08 84 1010.5
20260507181239 55 191 0.0 0.0 0.00 2.01 0.08 83 1010.4
20260507180724 55 191 0.0 1.7 0.00 2.01 0.08 83 1010.4
20260507180229 55 191 0.0 1.7 0.00 2.01 0.08 83 1010.3
20260507175734 55 244 0.0 2.6 0.00 4.21 0.08 83 1010.3
20260507175223 55 244 0.0 3.5 0.00 4.21 0.08 83 1010.3
20260507174749 55 215 1.7 7.0 0.04 4.21 0.08 82 1010.3
20260507174252 55 237 3.5 10.4 0.04 4.21 0.08 81 1010.3
20260507173735 56 240 5.2 10.4 0.04 4.21 0.08 79 1010.2
20260507173240 56 193 1.7 7.8 0.04 4.21 0.08 78 1010.2
20260507172743 57 193 2.6 9.6 0.04 4.21 0.08 76 1010.1
20260507172227 57 156 5.2 11.3 0.04 4.21 0.08 74 1010.0
20260507171731 58 161 7.0 11.3 0.04 4.21 0.08 74 1009.9
20260507171236 58 134 8.7 11.3 0.04 4.21 0.08 71 1009.8
20260507170739 58 191 6.1 13.0 0.04 4.21 0.08 74 1009.9
20260507170224 58 136 7.8 15.6 0.04 4.21 0.08 76 1009.8
20260507165729 58 148 7.0 15.6 0.04 4.21 0.08 77 1009.9
20260507165255 58 181 9.6 11.3 0.04 4.21 0.08 79 1009.8
20260507164740 58 173 7.0 10.4 0.00 4.17 0.07 79 1009.8
20260507164226 59 174 6.1 10.4 0.00 4.17 0.07 78 1009.7
20260507163752 60 196 3.5 9.6 0.00 4.17 0.07 76 1009.7
20260507163237 61 184 5.2 9.6 0.00 4.17 0.07 75 1009.7
20260507162726 61 165 4.3 8.7 0.00 4.17 0.07 74 1009.6
20260507162233 61 210 5.2 8.7 0.00 4.17 0.07 73 1009.5
20260507161739 61 213 3.5 6.1 0.00 4.17 0.07 72 1009.5
20260507161224 61 185 4.3 6.1 0.00 4.17 0.07 69 1009.4
20260507160730 61 192 2.6 6.1 0.00 4.17 0.07 69 1009.4
20260507160235 61 214 4.3 6.1 0.00 4.17 0.07 69 1009.3
20260507155739 61 209 3.5 6.1 0.00 4.17 0.07 69 1009.2
20260507155225 61 228 2.6 6.1 0.00 4.17 0.07 70 1009.3
20260507154731 61 223 3.5 7.8 0.00 4.17 0.07 69 1009.3
20260507154235 62 242 2.6 7.8 0.00 4.17 0.07 69 1009.1
20260507153724 62 190 4.3 8.7 0.00 4.17 0.07 67 1009.2
20260507153228 62 238 5.2 8.7 0.00 4.17 0.07 64 1009.1
20260507152808 62 191 4.3 7.0 0.00 4.17 0.07 65 1009.1
20260507152233 62 246 4.3 7.0 0.00 4.17 0.07 71 1009.1
20260507151738 62 210 3.5 7.8 0.00 4.17 0.07 72 1009.2
20260507151223 61 219 4.3 7.8 0.00 4.17 0.07 71 1009.2
20260507150749 61 230 3.5 7.0 0.00 4.17 0.07 71 1009.1
20260507150239 62 190 4.3 7.8 0.00 4.17 0.07 70 1009.1
20260507145744 62 236 2.6 7.8 0.00 4.21 0.07 71 1009.1
20260507145228 62 194 2.6 7.0 0.00 4.21 0.07 70 1009.0
20260507144733 62 240 4.3 7.8 0.00 4.21 0.07 69 1009.0
20260507144238 63 248 5.2 7.0 0.00 4.21 0.07 65 1009.0
20260507143724 63 211 1.7 7.8 0.00 4.21 0.07 65 1009.0
20260507143230 63 212 4.3 7.8 0.00 4.21 0.07 64 1009.1
20260507142737 63 275 3.5 6.1 0.00 4.21 0.07 64 1009.1
20260507142223 63 210 0.9 6.1 0.00 4.21 0.07 67 1009.1
20260507141729 64 204 3.5 6.1 0.00 4.21 0.07 62 1009.1
20260507141235 64 165 1.7 5.2 0.00 4.21 0.07 65 1009.1
20260507140724 63 257 2.6 7.8 0.00 4.21 0.07 67 1009.2
20260507140228 62 229 3.5 7.8 0.00 4.21 0.07 66 1009.4
20260507135734 62 240 5.2 7.8 0.00 4.65 0.07 68 1009.5
20260507135238 61 233 3.5 6.1 0.00 4.65 0.07 70 1009.5
20260507134724 61 207 2.6 5.2 0.00 4.65 0.07 70 1009.6
20260507134231 61 187 3.5 5.2 0.00 4.65 0.07 64 1009.7
20260507133735 61 182 2.6 6.1 0.00 4.65 0.07 64 1009.7
20260507133241 61 184 3.5 7.0 0.04 4.65 0.07 64 1009.7
20260507132726 61 198 3.5 10.4 0.04 4.65 0.07 66 1009.8
20260507132232 61 186 4.3 10.4 0.04 4.65 0.07 68 1009.9
20260507131757 62 213 4.3 9.6 0.04 4.65 0.07 69 1009.8
20260507131242 62 239 2.6 6.1 0.08 4.65 0.07 69 1009.7
20260507130731 61 235 2.6 6.1 0.08 4.65 0.07 73 1009.9
20260507130256 61 258 3.5 6.1 0.08 4.65 0.07 71 1009.9
20260507125739 61 200 3.5 6.1 0.08 4.72 0.07 72 1009.8
20260507125224 60 178 2.6 4.3 0.08 4.72 0.07 75 1009.9
20260507124730 60 175 1.7 3.5 0.12 4.72 0.07 79 1010.0
20260507124234 60 198 0.9 3.5 0.12 4.72 0.07 79 1010.0
20260507123800 59 282 0.0 2.6 0.08 4.69 0.06 85 1010.0
20260507123225 58 325 0.0 3.5 0.08 4.69 0.06 89 1010.0
20260507122730 56 284 0.0 3.5 0.08 4.69 0.06 86 1010.0
20260507122257 56 351 0.9 4.3 0.08 4.69 0.06 83 1009.9
20260507121740 56 40 2.6 7.0 0.08 4.69 0.06 81 1009.9
20260507121225 56 348 2.6 7.0 0.04 4.65 0.05 80 1010.0
20260507120750 57 348 2.6 8.7 0.04 4.65 0.05 77 1009.8
20260507120234 57 209 1.7 12.2 0.04 4.65 0.05 74 1009.7
20260507115759 58 265 7.8 12.2 0.04 4.69 0.05 72 1009.8
20260507115226 59 101 1.7 4.3 0.04 4.69 0.05 78 1009.8
20260507114729 59 57 1.7 2.6 0.00 4.65 0.04 75 1009.8
20260507114235 60 5 0.9 4.3 0.00 4.65 0.04 73 1009.7
20260507113740 60 30 2.6 7.0 0.00 4.65 0.04 71 1009.6
20260507113244 60 36 2.6 7.0 0.00 4.65 0.04 71 1009.7
20260507112728 60 69 2.6 3.5 0.00 4.65 0.04 72 1009.7
20260507112232 61 34 0.9 2.6 0.00 4.65 0.04 69 1009.7
20260507111735 61 248 0.0 4.3 0.00 4.65 0.04 67 1009.7
20260507111240 61 197 0.9 7.0 0.00 4.65 0.04 70 1009.7
20260507110724 61 257 3.5 7.8 0.00 4.65 0.04 67 1009.7
20260507110228 61 224 5.2 12.2 0.00 4.65 0.04 65 1009.7
20260507105735 62 205 4.3 12.2 0.00 4.84 0.04 63 1009.8
20260507105239 62 261 2.6 9.6 0.00 4.84 0.04 63 1009.7
20260507104747 63 223 4.3 10.4 0.00 4.84 0.04 64 1009.7
20260507104231 62 160 5.2 10.4 0.00 4.84 0.04 63 1009.7
20260507103737 62 221 5.2 12.2 0.00 4.84 0.04 64 1009.6
20260507103302 62 244 5.2 10.4 0.00 4.84 0.04 63 1009.7
20260507102726 61 128 5.2 9.6 0.00 4.84 0.04 63 1009.9
20260507102250 62 212 4.3 7.0 0.00 4.84 0.04 64 1009.9
20260507101734 61 163 2.6 7.0 0.00 4.84 0.04 65 1010.0
20260507101238 61 122 3.5 7.0 0.00 4.84 0.04 63 1010.0
20260507100723 61 190 3.5 7.0 0.00 4.84 0.04 65 1010.0
20260507100229 61 215 1.7 8.7 0.00 4.84 0.04 68 1010.1
20260507095733 60 158 5.2 8.7 0.00 5.08 0.04 68 1010.1
20260507095239 59 198 5.2 8.7 0.00 5.08 0.04 70 1010.1
20260507094725 59 205 5.2 7.8 0.00 5.08 0.04 68 1010.3
20260507094251 59 191 5.2 9.6 0.00 5.08 0.04 67 1010.2
20260507093739 59 213 6.1 9.6 0.00 5.08 0.04 67 1010.1
20260507093244 59 171 4.3 8.7 0.00 5.08 0.04 67 1010.2
20260507092728 59 205 4.3 11.3 0.00 5.08 0.04 67 1010.1
20260507092235 59 125 7.0 11.3 0.00 5.08 0.04 66 1010.1
20260507091740 59 135 7.0 10.4 0.04 5.08 0.04 67 1010.1
20260507091245 59 190 4.3 7.8 0.04 5.08 0.04 68 1010.2
20260507090750 59 136 5.2 8.7 0.04 5.08 0.04 68 1010.3
20260507090234 59 202 5.2 8.7 0.04 5.08 0.04 68 1010.3
20260507085740 59 121 4.3 7.8 0.04 5.12 0.04 68 1010.2
20260507085225 58 111 4.3 10.4 0.04 5.12 0.04 70 1010.2
20260507084731 58 144 7.0 10.4 0.04 5.12 0.04 70 1010.2
20260507084237 58 136 5.2 8.7 0.04 5.12 0.04 70 1010.2
20260507083727 58 165 3.5 8.7 0.04 5.12 0.04 72 1010.2
20260507083231 58 173 5.2 8.7 0.04 5.12 0.04 72 1010.2
20260507082757 58 146 5.2 7.8 0.04 5.12 0.04 69 1010.1
20260507082243 57 199 2.6 5.2 0.04 5.12 0.04 72 1010.1
20260507081727 58 190 0.9 2.6 0.00 5.08 0.03 70 1010.1
20260507081231 57 128 0.0 0.0 0.00 5.08 0.03 68 1010.1
20260507080734 57 140 0.0 3.5 0.00 5.08 0.03 74 1010.1
20260507080238 56 163 0.0 3.5 0.00 5.08 0.03 77 1010.0
20260507075803 55 151 0.9 3.5 0.00 5.08 0.03 78 1010.1
20260507075227 54 139 1.7 2.6 0.00 5.08 0.03 79 1010.1
20260507074734 54 88 0.9 2.6 0.00 5.08 0.03 81 1010.1
20260507074239 54 355 0.0 0.0 0.00 5.08 0.03 81 1010.0
20260507073724 53 355 0.0 1.7 0.00 5.08 0.03 83 1010.1
20260507073228 53 355 0.0 2.6 0.00 5.08 0.03 82 1010.1
20260507072736 52 355 0.0 2.6 0.00 5.08 0.03 82 1010.0
20260507072240 52 360 0.0 3.5 0.00 5.08 0.03 84 1010.0
20260507071726 52 40 1.7 5.2 0.00 5.08 0.03 84 1010.0
20260507071231 52 9 3.5 6.1 0.00 5.08 0.03 83 1009.9
20260507070757 52 45 3.5 5.2 0.00 5.08 0.03 84 1010.0
20260507070240 51 29 2.6 5.2 0.00 5.08 0.03 85 1009.9
20260507065725 51 35 2.6 5.2 0.00 5.08 0.03 86 1009.9
20260507065230 50 314 2.6 5.2 0.00 5.08 0.03 87 1009.9
20260507064734 50 360 1.7 4.3 0.00 5.08 0.03 88 1009.9
20260507064259 50 42 2.6 4.3 0.00 5.08 0.03 88 1009.9
20260507063803 49 360 1.7 3.5 0.00 5.08 0.03 89 1010.0
20260507063226 49 31 1.7 4.3 0.00 5.08 0.03 89 1010.0
20260507062731 49 57 1.7 4.3 0.00 5.08 0.03 88 1010.0
20260507062240 49 342 0.9 5.2 0.00 5.08 0.03 88 1010.0
20260507061744 49 355 2.6 5.2 0.00 5.08 0.03 88 1009.9
20260507061225 49 321 3.5 5.2 0.00 5.08 0.03 88 1009.9
20260507060730 49 355 3.5 7.0 0.00 5.08 0.03 87 1009.9
20260507060255 49 36 4.3 7.0 0.00 5.08 0.03 87 1009.9
20260507055738 49 355 4.3 7.0 0.00 5.47 0.03 89 1009.8
20260507055241 49 360 2.6 5.2 0.00 5.47 0.03 89 1009.9
20260507054726 49 355 1.7 4.3 0.00 5.47 0.03 89 1009.8
20260507054231 49 321 1.7 8.7 0.00 5.47 0.03 89 1009.8
20260507053737 48 52 3.5 8.7 0.00 5.47 0.03 89 1009.6
20260507053239 49 355 2.6 7.8 0.00 5.47 0.03 88 1009.6
20260507052724 49 340 3.5 7.8 0.00 5.47 0.03 88 1009.6
20260507052248 49 74 2.6 7.8 0.00 5.47 0.03 88 1009.6
20260507051732 49 22 0.9 7.0 0.00 5.47 0.03 88 1009.4
20260507051241 49 35 3.5 9.6 0.04 5.47 0.03 88 1009.4
20260507050726 48 333 0.9 9.6 0.08 5.47 0.03 89 1009.3
20260507050230 48 12 1.7 7.0 0.08 5.47 0.03 89 1009.2
20260507045734 48 355 2.6 7.8 0.08 5.59 0.03 89 1009.2
20260507045238 48 315 3.5 11.3 0.08 5.59 0.03 89 1009.2
20260507044723 48 360 5.2 8.7 0.08 5.59 0.03 89 1009.2
20260507044228 48 341 4.3 8.7 0.08 5.59 0.03 89 1009.0
20260507043733 48 351 6.1 8.7 0.08 5.59 0.03 89 1009.0
20260507043238 48 325 5.2 9.6 0.08 5.59 0.03 88 1009.0
20260507042724 49 329 5.2 13.0 0.08 5.59 0.03 86 1009.0
20260507042230 49 344 2.6 15.6 0.08 5.59 0.03 85 1009.1
20260507041736 49 360 8.7 15.6 0.08 5.59 0.03 84 1009.0
20260507041226 49 44 7.0 13.0 0.04 5.55 0.02 85 1009.0
20260507040732 49 31 7.0 13.0 0.00 5.51 0.01 84 1009.0
20260507040236 50 24 7.0 13.0 0.00 5.51 0.01 83 1009.1
20260507035742 50 40 7.0 17.4 0.00 5.51 0.01 82 1009.1
20260507035227 50 42 9.6 17.4 0.00 5.51 0.01 81 1009.0
20260507034753 50 30 7.8 13.9 0.00 5.51 0.01 82 1008.9
20260507034237 50 21 8.7 13.9 0.00 5.51 0.01 82 1009.0
20260507033723 50 15 8.7 13.9 0.00 5.51 0.01 84 1009.0
20260507033229 50 42 5.2 12.2 0.00 5.51 0.01 86 1009.0
20260507032755 50 62 7.0 12.2 0.00 5.51 0.01 88 1009.0
20260507032239 49 325 5.2 10.4 0.00 5.51 0.01 91 1009.0
20260507031729 49 5 6.1 10.4 0.00 5.51 0.01 92 1008.9
20260507031235 49 22 2.6 10.4 0.00 5.51 0.01 93 1009.0
20260507030740 49 5 5.2 9.6 0.00 5.51 0.01 93 1008.8
20260507030223 49 348 3.5 7.0 0.00 5.51 0.01 93 1008.8
20260507025728 49 24 3.5 8.7 0.00 5.55 0.01 93 1009.0
20260507025235 49 44 7.0 8.7 0.00 5.55 0.01 94 1009.0
20260507024740 48 65 3.5 5.2 0.00 5.55 0.01 94 1008.9
20260507024225 48 23 1.7 3.5 0.00 5.55 0.01 93 1008.9
20260507023751 49 15 0.9 3.5 0.00 5.55 0.01 93 1008.8
20260507023234 49 59 1.7 3.5 0.00 5.55 0.01 93 1008.8
20260507022740 49 204 0.9 1.7 0.00 5.55 0.01 93 1008.8
20260507022229 48 204 0.0 1.7 0.00 5.55 0.01 93 1008.7
20260507021733 48 204 0.9 2.6 0.00 5.55 0.01 93 1008.7
20260507021238 49 204 0.0 3.5 0.00 5.55 0.01 93 1008.6
20260507020723 49 208 1.7 3.5 0.00 5.55 0.01 93 1008.6
20260507020248 48 123 1.7 3.5 0.00 5.55 0.01 93 1008.5
20260507015731 48 173 0.9 3.5 0.00 5.83 0.01 93 1008.6
20260507015256 48 182 0.9 4.3 0.00 5.83 0.01 93 1008.5
20260507014741 48 70 2.6 4.3 0.00 5.83 0.01 93 1008.5
20260507014224 48 39 1.7 2.6 0.00 5.83 0.01 93 1008.5
20260507013729 48 24 1.7 2.6 0.00 5.83 0.01 93 1008.5
20260507013233 48 360 0.9 2.6 0.04 5.83 0.01 93 1008.5
20260507012758 48 197 0.9 2.6 0.04 5.83 0.01 93 1008.6
20260507012241 48 27 0.0 3.5 0.04 5.83 0.01 93 1008.5
20260507011726 48 42 2.6 4.3 0.04 5.83 0.01 93 1008.5
20260507011235 48 53 2.6 3.5 0.04 5.83 0.01 93 1008.6
20260507010740 48 169 0.9 3.5 0.04 5.83 0.01 92 1008.5
20260507010245 48 195 2.6 4.3 0.04 5.83 0.01 92 1008.6
20260507005729 48 209 2.6 5.2 0.04 5.98 0.01 93 1008.6
20260507005234 48 338 1.7 5.2 0.04 5.98 0.01 93 1008.6
20260507004738 48 52 2.6 4.3 0.04 5.98 0.01 93 1008.5
20260507004224 48 36 1.7 3.5 0.04 5.98 0.01 93 1008.6
20260507003729 48 36 0.9 4.3 0.04 5.98 0.01 93 1008.6
20260507003235 48 343 2.6 4.3 0.00 5.94 0.00 93 1008.7
20260507002740 48 61 0.9 2.6 0.00 5.94 0.00 93 1008.8
20260507002224 48 145 0.0 2.6 0.00 5.94 0.00 93 1008.7
20260507001748 48 145 0.9 2.6 0.00 5.94 0.00 92 1008.8
20260507001231 48 242 1.7 2.6 0.00 5.94 0.00 92 1008.7
20260507000740 48 98 0.0 2.6 0.00 5.94 0.00 92 1008.7
20260507000247 48 98 1.7 2.6 0.00 5.94 0.00 92 1008.7
20260506235730 48 38 0.9 2.6 0.00 6.30 0.00 92 1008.7
20260506235236 48 55 0.9 1.7 0.00 6.30 0.00 92 1008.8
20260506234742 48 342 0.9 1.7 0.00 6.30 0.00 92 1008.7
20260506234227 48 342 0.0 0.0 0.00 6.30 0.00 92 1008.8
20260506233733 48 342 0.0 0.9 0.00 6.30 0.00 91 1008.8
20260506233238 48 342 0.0 0.9 0.00 6.30 0.00 91 1008.7
20260506232723 48 342 0.0 3.5 0.00 6.30 0.00 91 1008.7
20260506232227 48 77 0.9 3.5 0.00 6.30 0.00 91 1008.7
20260506231731 48 47 1.7 5.2 0.00 6.30 0.00 91 1008.7
20260506231236 48 32 0.9 5.2 0.00 6.30 0.00 91 1008.6
20260506230233 48 277 0.9 4.3 0.00 6.30 0.00 91 1008.6
20260506225739 48 69 0.9 7.0 0.00 6.42 0.00 91 1008.5
20260506225225 48 360 2.6 7.0 0.04 6.42 0.00 91 1008.5
20260506224731 48 355 3.5 7.8 0.04 6.42 0.00 90 1008.5
20260506224257 48 58 4.3 8.7 0.04 6.42 0.00 90 1008.6
20260506223723 48 26 5.2 8.7 0.04 6.42 0.00 90 1008.6
20260506223228 48 22 4.3 6.1 0.04 6.42 0.00 91 1008.6
20260506222732 48 43 0.9 3.5 0.04 6.42 0.00 91 1008.8
20260506222237 48 294 0.9 3.5 0.04 6.42 0.00 91 1008.9
20260506221803 48 311 1.7 3.5 0.04 6.42 0.00 91 1008.9
20260506221227 48 35 1.7 7.8 0.04 6.42 0.00 90 1008.8
20260506220732 48 331 3.5 7.8 0.04 6.42 0.00 90 1008.7
20260506220241 48 49 4.3 10.4 0.04 6.42 0.00 90 1008.7
20260506215725 49 53 5.2 8.7 0.00 6.89 1.62 89 1008.7
20260506215230 49 74 4.3 7.0 0.00 6.89 1.62 89 1008.9
20260506214736 49 37 1.7 3.5 0.00 6.89 1.62 89 1009.0
20260506214241 49 63 1.7 5.2 0.00 6.89 1.62 89 1008.9
20260506213746 48 316 1.7 5.2 0.00 6.89 1.62 89 1008.9
20260506213230 48 355 1.7 4.3 0.00 6.89 1.62 89 1008.9
20260506212735 48 309 0.9 6.1 0.00 6.89 1.62 89 1008.9
20260506212240 49 213 0.9 6.1 0.00 6.89 1.62 88 1008.9
20260506211724 49 319 1.7 9.6 0.00 6.89 1.62 88 1008.8
20260506211228 49 5 3.5 12.2 0.00 6.89 1.62 88 1008.6
20260506210737 49 24 5.2 12.2 0.00 6.89 1.62 88 1008.4
20260506210241 48 42 4.3 9.6 0.00 6.89 1.62 89 1008.6
20260506205726 48 35 4.3 11.3 0.04 6.89 1.62 90 1008.6
20260506205230 48 335 5.2 10.4 0.08 6.89 1.62 90 1008.7
20260506204734 48 319 5.2 8.7 0.12 6.89 1.62 90 1008.7
20260506204236 48 30 1.7 8.7 0.16 6.89 1.62 90 1008.9
20260506203740 48 339 4.3 9.6 0.20 6.89 1.62 90 1008.9
20260506203243 48 355 4.3 12.2 0.24 6.89 1.62 90 1008.8
20260506202727 48 347 3.5 12.2 0.24 6.89 1.62 90 1008.7
20260506202230 48 360 4.3 10.4 0.24 6.89 1.62 90 1008.7
20260506201735 48 5 4.3 13.0 0.24 6.89 1.62 91 1008.8
20260506201240 48 321 7.0 13.0 0.24 6.89 1.62 91 1008.7
20260506200723 48 342 7.0 10.4 0.24 6.89 1.62 91 1008.8
20260506200230 48 355 5.2 10.4 0.28 6.89 1.62 91 1008.7
20260506195731 48 360 4.3 10.4 0.24 6.89 1.61 90 1008.8
20260506195234 48 327 6.1 13.9 0.24 6.85 1.60 89 1008.6
20260506194739 48 338 5.2 13.9 0.24 6.81 1.59 89 1008.5
20260506194239 48 308 7.8 13.0 0.28 6.77 1.58 89 1008.5
20260506193741 48 326 3.5 9.6 0.31 6.73 1.57 89 1008.4
20260506193246 49 315 3.5 9.6 0.43 6.69 1.56 88 1008.4